| time (UTC) | temp F | wind direction | speed MPH | gust MPH | rain 1hr in | rain 24hr in | rain mn in | humidity % | barometer mb |
| 20260904212224 | 84 | 141 | 0.0 | 0.0 | 0.00 | 0.00 | 0.00 | 75 | 1004.8 |
| 20260904211721 | 84 | 141 | 0.0 | 0.0 | 0.00 | 0.00 | 0.00 | 73 | 1004.8 |
| 20260904211223 | 85 | 141 | 0.0 | 1.0 | 0.00 | 0.00 | 0.00 | 71 | 1004.7 |
| 20260904210721 | 85 | 141 | 0.0 | 1.0 | 0.00 | 0.00 | 0.00 | 70 | 1004.7 |
| 20260904210221 | 86 | 141 | 0.0 | 1.0 | 0.00 | 0.00 | 0.00 | 68 | 1004.5 |
| 20260904205722 | 86 | 141 | 0.0 | 1.0 | 0.00 | 0.00 | 0.00 | 67 | 1004.9 |
| 20260904205221 | 86 | 256 | 0.0 | 2.0 | 0.00 | 0.00 | 0.00 | 66 | 1005.1 |
| 20260904204722 | 86 | 250 | 0.0 | 2.0 | 0.00 | 0.00 | 0.00 | 65 | 1005.1 |
| 20260904204222 | 87 | 252 | 0.0 | 2.0 | 0.00 | 0.00 | 0.00 | 65 | 1005.2 |
| 20260904203718 | 87 | 232 | 0.0 | 2.0 | 0.00 | 0.00 | 0.00 | 64 | 1005.0 |
| 20260904203218 | 88 | 136 | 0.0 | 5.0 | 0.00 | 0.00 | 0.00 | 63 | 1005.1 |
| 20260904202217 | 89 | 174 | 0.0 | 3.0 | 0.00 | 0.00 | 0.00 | 61 | 1005.0 |
| 20260904201718 | 90 | 314 | 0.0 | 2.0 | 0.00 | 0.00 | 0.00 | 61 | 1004.8 |
| 20260904201217 | 90 | 94 | 0.0 | 2.0 | 0.00 | 0.00 | 0.00 | 62 | 1004.7 |
| 20260904200718 | 91 | 151 | 0.0 | 4.0 | 0.00 | 0.00 | 0.00 | 57 | 1004.5 |
| 20260904200218 | 91 | 11 | 1.0 | 8.0 | 0.00 | 0.00 | 0.00 | 56 | 1004.6 |
| 20260904195717 | 91 | 271 | 1.0 | 8.0 | 0.00 | 0.00 | 0.00 | 54 | 1004.9 |
| 20260904195214 | 92 | 110 | 1.0 | 3.0 | 0.00 | 0.00 | 0.00 | 57 | 1004.9 |
| 20260904194713 | 91 | 134 | 1.0 | 3.0 | 0.00 | 0.00 | 0.00 | 57 | 1004.9 |
| 20260904194214 | 92 | 102 | 1.0 | 4.0 | 0.00 | 0.00 | 0.00 | 57 | 1004.9 |
| 20260904193713 | 92 | 110 | 1.0 | 4.0 | 0.00 | 0.00 | 0.00 | 58 | 1004.8 |
| 20260904193214 | 92 | 123 | 1.0 | 6.0 | 0.00 | 0.00 | 0.00 | 57 | 1004.7 |
| 20260904192938 | 92 | 70 | 1.0 | 6.0 | 0.00 | 0.00 | 0.00 | 57 | 1004.7 |
| 20260904192214 | 92 | 87 | 1.0 | 3.0 | 0.00 | 0.00 | 0.00 | 56 | 1004.6 |
| 20260904191714 | 92 | 121 | 1.0 | 5.0 | 0.00 | 0.00 | 0.00 | 58 | 1004.7 |
| 20260904191214 | 92 | 95 | 1.0 | 5.0 | 0.00 | 0.00 | 0.00 | 58 | 1004.9 |
| 20260904190713 | 92 | 237 | 1.0 | 5.0 | 0.00 | 0.00 | 0.00 | 55 | 1004.9 |
| 20260904190214 | 92 | 124 | 0.0 | 3.0 | 0.00 | 0.00 | 0.00 | 57 | 1005.0 |
| 20260904185714 | 92 | 124 | 0.0 | 2.0 | 0.00 | 0.00 | 0.00 | 57 | 1005.0 |
| 20260904185214 | 91 | 127 | 1.0 | 5.0 | 0.00 | 0.00 | 0.00 | 56 | 1005.2 |
| 20260904184714 | 91 | 205 | 1.0 | 5.0 | 0.00 | 0.00 | 0.00 | 60 | 1005.3 |
| 20260904184214 | 91 | 209 | 1.0 | 4.0 | 0.00 | 0.00 | 0.00 | 57 | 1005.3 |
| 20260904183713 | 91 | 72 | 1.0 | 5.0 | 0.00 | 0.00 | 0.00 | 56 | 1005.4 |
| 20260904183214 | 91 | 155 | 1.0 | 5.0 | 0.00 | 0.00 | 0.00 | 59 | 1005.4 |
| 20260904182710 | 91 | 156 | 1.0 | 3.0 | 0.00 | 0.00 | 0.00 | 61 | 1005.4 |
| 20260904182204 | 90 | 69 | 0.0 | 2.0 | 0.00 | 0.00 | 0.00 | 62 | 1005.5 |
| 20260904181700 | 90 | 69 | 0.0 | 3.0 | 0.00 | 0.00 | 0.00 | 59 | 1005.5 |
| 20260904181152 | 90 | 69 | 0.0 | 4.0 | 0.00 | 0.00 | 0.00 | 60 | 1005.6 |
| 20260904180646 | 89 | 205 | 0.0 | 1.0 | 0.00 | 0.00 | 0.00 | 66 | 1005.6 |
| 20260904180141 | 89 | 315 | 1.0 | 4.0 | 0.00 | 0.00 | 0.00 | 62 | 1005.6 |
| 20260904175634 | 89 | 316 | 1.0 | 5.0 | 0.00 | 0.00 | 0.00 | 64 | 1005.6 |
| 20260904175133 | 88 | 196 | 1.0 | 6.0 | 0.00 | 0.00 | 0.00 | 65 | 1005.6 |
| 20260904174634 | 88 | 140 | 1.0 | 6.0 | 0.00 | 0.00 | 0.00 | 65 | 1005.6 |
| 20260904174130 | 88 | 212 | 1.0 | 3.0 | 0.00 | 0.00 | 0.00 | 62 | 1005.7 |
| 20260904173632 | 88 | 65 | 1.0 | 5.0 | 0.00 | 0.00 | 0.00 | 61 | 1005.7 |
| 20260904173130 | 87 | 61 | 2.0 | 5.0 | 0.00 | 0.00 | 0.00 | 62 | 1005.8 |
| 20260904172625 | 87 | 210 | 1.0 | 5.0 | 0.00 | 0.00 | 0.00 | 64 | 1005.8 |
| 20260904172126 | 87 | 226 | 1.0 | 5.0 | 0.00 | 0.00 | 0.00 | 65 | 1005.9 |
| 20260904171625 | 87 | 213 | 1.0 | 4.0 | 0.00 | 0.00 | 0.00 | 65 | 1005.9 |
| 20260904171125 | 87 | 85 | 0.0 | 3.0 | 0.00 | 0.00 | 0.00 | 67 | 1006.0 |
| 20260904170847 | 87 | 136 | 0.0 | 3.0 | 0.00 | 0.00 | 0.00 | 71 | 1005.9 |
| 20260904170123 | 86 | 13 | 1.0 | 5.0 | 0.00 | 0.00 | 0.00 | 71 | 1005.9 |
| 20260904165622 | 86 | 47 | 1.0 | 5.0 | 0.00 | 0.00 | 0.00 | 70 | 1006.0 |
| 20260904165120 | 85 | 73 | 1.0 | 4.0 | 0.00 | 0.00 | 0.00 | 75 | 1006.1 |
| 20260904164617 | 85 | 139 | 0.0 | 2.0 | 0.00 | 0.00 | 0.00 | 73 | 1006.2 |
| 20260904164116 | 85 | 91 | 1.0 | 5.0 | 0.00 | 0.00 | 0.00 | 74 | 1006.3 |
| 20260904163115 | 84 | 103 | 1.0 | 3.0 | 0.00 | 0.00 | 0.00 | 74 | 1006.4 |
| 20260904162614 | 84 | 51 | 1.0 | 3.0 | 0.00 | 0.00 | 0.00 | 73 | 1006.4 |
| 20260904162111 | 84 | 85 | 1.0 | 3.0 | 0.00 | 0.00 | 0.00 | 75 | 1006.5 |
| 20260904161610 | 83 | 105 | 1.0 | 4.0 | 0.00 | 0.00 | 0.00 | 74 | 1006.5 |
| 20260904161110 | 83 | 153 | 1.0 | 4.0 | 0.00 | 0.00 | 0.00 | 74 | 1006.7 |
| 20260904160603 | 83 | 158 | 1.0 | 3.0 | 0.00 | 0.00 | 0.00 | 74 | 1006.6 |
| 20260904160057 | 83 | 129 | 1.0 | 5.0 | 0.00 | 0.00 | 0.00 | 74 | 1006.7 |
| 20260904155551 | 83 | 117 | 1.0 | 5.0 | 0.00 | 0.00 | 0.00 | 76 | 1006.6 |
| 20260904155306 | 82 | 30 | 1.0 | 4.0 | 0.00 | 0.00 | 0.00 | 77 | 1006.6 |
| 20260904154540 | 82 | 7 | 1.0 | 4.0 | 0.00 | 0.00 | 0.00 | 80 | 1006.6 |
| 20260904154032 | 81 | 102 | 1.0 | 4.0 | 0.00 | 0.00 | 0.00 | 81 | 1006.6 |
| 20260904153744 | 81 | 270 | 1.0 | 6.0 | 0.00 | 0.00 | 0.00 | 80 | 1006.7 |
| 20260904153238 | 80 | 353 | 1.0 | 6.0 | 0.00 | 0.00 | 0.00 | 82 | 1006.7 |
| 20260904152737 | 80 | 179 | 1.0 | 4.0 | 0.00 | 0.00 | 0.00 | 84 | 1006.7 |
| 20260904152237 | 79 | 131 | 1.0 | 5.0 | 0.00 | 0.00 | 0.00 | 84 | 1006.7 |
| 20260904151503 | 79 | 298 | 1.0 | 5.0 | 0.00 | 0.00 | 0.00 | 84 | 1006.7 |
| 20260904150958 | 78 | 227 | 1.0 | 4.0 | 0.00 | 0.00 | 0.00 | 83 | 1006.7 |
| 20260904150451 | 78 | 139 | 1.0 | 4.0 | 0.00 | 0.00 | 0.00 | 78 | 1006.9 |
| 20260904150211 | 78 | 221 | 1.0 | 4.0 | 0.00 | 0.00 | 0.00 | 72 | 1007.0 |
| 20260904145440 | 77 | 131 | 1.0 | 4.0 | 0.00 | 0.00 | 0.00 | 69 | 1007.1 |
| 20260904144932 | 77 | 217 | 1.0 | 6.0 | 0.00 | 0.00 | 0.00 | 69 | 1007.1 |
| 20260904144654 | 77 | 250 | 1.0 | 6.0 | 0.00 | 0.00 | 0.00 | 70 | 1007.1 |
| 20260904143921 | 77 | 91 | 1.0 | 4.0 | 0.00 | 0.00 | 0.00 | 70 | 1007.0 |
| 20260904143414 | 76 | 137 | 1.0 | 4.0 | 0.00 | 0.00 | 0.00 | 70 | 1006.9 |
| 20260904142910 | 76 | 231 | 0.0 | 3.0 | 0.00 | 0.00 | 0.00 | 71 | 1006.9 |
| 20260904142402 | 76 | 132 | 1.0 | 3.0 | 0.00 | 0.00 | 0.00 | 72 | 1006.9 |
| 20260904141857 | 76 | 141 | 1.0 | 4.0 | 0.00 | 0.00 | 0.00 | 72 | 1006.8 |
| 20260904141352 | 76 | 210 | 1.0 | 4.0 | 0.00 | 0.00 | 0.00 | 72 | 1006.8 |
| 20260904140845 | 75 | 238 | 1.0 | 4.0 | 0.00 | 0.00 | 0.00 | 73 | 1006.9 |
| 20260904140338 | 75 | 122 | 1.0 | 6.0 | 0.00 | 0.00 | 0.00 | 73 | 1007.0 |
| 20260904135831 | 75 | 233 | 1.0 | 6.0 | 0.00 | 0.00 | 0.00 | 73 | 1007.0 |
| 20260904135325 | 75 | 170 | 1.0 | 6.0 | 0.00 | 0.00 | 0.00 | 73 | 1006.9 |
| 20260904134825 | 75 | 80 | 0.0 | 4.0 | 0.00 | 0.00 | 0.00 | 74 | 1006.8 |
| 20260904134323 | 75 | 231 | 0.0 | 3.0 | 0.00 | 0.00 | 0.00 | 74 | 1006.8 |
| 20260904133821 | 74 | 159 | 1.0 | 4.0 | 0.00 | 0.00 | 0.00 | 74 | 1006.8 |
| 20260904133541 | 74 | 266 | 1.0 | 4.0 | 0.00 | 0.00 | 0.00 | 74 | 1006.8 |
| 20260904132820 | 74 | 217 | 1.0 | 3.0 | 0.00 | 0.00 | 0.00 | 74 | 1006.8 |
| 20260904132320 | 74 | 158 | 0.0 | 3.0 | 0.00 | 0.00 | 0.00 | 74 | 1006.9 |
| 20260904131817 | 74 | 246 | 0.0 | 3.0 | 0.00 | 0.00 | 0.00 | 74 | 1006.9 |
| 20260904131546 | 74 | 210 | 1.0 | 4.0 | 0.00 | 0.00 | 0.00 | 74 | 1006.8 |
| 20260904130813 | 74 | 256 | 1.0 | 4.0 | 0.00 | 0.00 | 0.00 | 74 | 1006.9 |
| 20260904130311 | 73 | 79 | 0.0 | 4.0 | 0.00 | 0.00 | 0.00 | 74 | 1006.8 |
| 20260904125811 | 73 | 233 | 0.0 | 1.0 | 0.00 | 0.00 | 0.00 | 74 | 1006.8 |
| 20260904125310 | 73 | 233 | 0.0 | 2.0 | 0.00 | 0.00 | 0.00 | 75 | 1006.8 |
| 20260904124809 | 73 | 224 | 0.0 | 2.0 | 0.00 | 0.00 | 0.00 | 75 | 1007.0 |
| 20260904124311 | 73 | 231 | 0.0 | 4.0 | 0.00 | 0.00 | 0.00 | 75 | 1006.9 |
| 20260904123810 | 73 | 224 | 0.0 | 4.0 | 0.00 | 0.00 | 0.00 | 74 | 1007.0 |
| 20260904123310 | 72 | 179 | 0.0 | 2.0 | 0.00 | 0.00 | 0.00 | 74 | 1007.1 |
| 20260904123032 | 72 | 160 | 0.0 | 1.0 | 0.00 | 0.00 | 0.00 | 74 | 1007.0 |
| 20260904122306 | 72 | 159 | 0.0 | 1.0 | 0.00 | 0.00 | 0.00 | 74 | 1007.0 |
| 20260904121803 | 72 | 210 | 0.0 | 2.0 | 0.00 | 0.00 | 0.00 | 74 | 1006.9 |
| 20260904121530 | 72 | 210 | 0.0 | 2.0 | 0.00 | 0.00 | 0.00 | 74 | 1006.8 |
| 20260904120757 | 72 | 240 | 0.0 | 1.0 | 0.00 | 0.00 | 0.00 | 74 | 1006.9 |
| 20260904120252 | 72 | 330 | 0.0 | 2.0 | 0.00 | 0.00 | 0.00 | 74 | 1007.0 |
| 20260904120010 | 71 | 160 | 0.0 | 2.0 | 0.00 | 0.00 | 0.00 | 74 | 1006.9 |
| 20260904115240 | 71 | 176 | 0.0 | 1.0 | 0.00 | 0.00 | 0.00 | 74 | 1006.9 |
| 20260904114954 | 71 | 235 | 0.0 | 1.0 | 0.00 | 0.00 | 0.00 | 74 | 1006.9 |
| 20260904114227 | 71 | 235 | 0.0 | 0.0 | 0.00 | 0.00 | 0.00 | 74 | 1006.9 |
| 20260904113215 | 71 | 237 | 0.0 | 0.0 | 0.00 | 0.00 | 0.00 | 74 | 1006.9 |
| 20260904112940 | 71 | 237 | 0.0 | 0.0 | 0.00 | 0.00 | 0.00 | 74 | 1006.9 |
| 20260904112204 | 71 | 237 | 0.0 | 0.0 | 0.00 | 0.00 | 0.00 | 74 | 1006.7 |
| 20260904111657 | 71 | 237 | 0.0 | 1.0 | 0.00 | 0.00 | 0.00 | 74 | 1006.8 |
| 20260904111417 | 71 | 237 | 0.0 | 1.0 | 0.00 | 0.00 | 0.00 | 74 | 1006.8 |
| 20260904110646 | 71 | 237 | 0.0 | 1.0 | 0.00 | 0.00 | 0.00 | 74 | 1007.0 |
| 20260904110139 | 71 | 237 | 0.0 | 1.0 | 0.00 | 0.00 | 0.00 | 74 | 1006.8 |
| 20260904105633 | 71 | 242 | 0.0 | 1.0 | 0.00 | 0.00 | 0.00 | 74 | 1006.7 |
| 20260904105346 | 71 | 242 | 0.0 | 2.0 | 0.00 | 0.00 | 0.00 | 74 | 1006.4 |
| 20260904104623 | 71 | 233 | 0.0 | 2.0 | 0.00 | 0.00 | 0.00 | 74 | 1006.4 |
| 20260904104115 | 71 | 164 | 0.0 | 0.0 | 0.00 | 0.00 | 0.00 | 74 | 1006.5 |
| 20260904103830 | 71 | 164 | 0.0 | 1.0 | 0.00 | 0.00 | 0.00 | 74 | 1006.5 |
| 20260904102558 | 71 | 224 | 0.0 | 1.0 | 0.00 | 0.00 | 0.00 | 74 | 1006.5 |
| 20260904102053 | 71 | 224 | 0.0 | 1.0 | 0.00 | 0.00 | 0.00 | 74 | 1006.4 |
| 20260904101545 | 71 | 144 | 0.0 | 2.0 | 0.00 | 0.00 | 0.00 | 74 | 1006.5 |
| 20260904101304 | 71 | 175 | 1.0 | 3.0 | 0.00 | 0.00 | 0.00 | 74 | 1006.4 |
| 20260904100533 | 71 | 139 | 0.0 | 3.0 | 0.00 | 0.00 | 0.00 | 74 | 1006.3 |
| 20260904100027 | 71 | 160 | 0.0 | 1.0 | 0.00 | 0.00 | 0.00 | 74 | 1006.5 |
| 20260904095523 | 70 | 160 | 0.0 | 0.0 | 0.00 | 0.00 | 0.00 | 74 | 1006.5 |
| 20260904095015 | 70 | 160 | 0.0 | 0.0 | 0.00 | 0.00 | 0.00 | 74 | 1006.2 |
| 20260904094509 | 70 | 160 | 0.0 | 0.0 | 0.00 | 0.00 | 0.00 | 74 | 1006.1 |
| 20260904094003 | 70 | 160 | 0.0 | 0.0 | 0.00 | 0.00 | 0.00 | 74 | 1005.7 |
| 20260904093458 | 70 | 160 | 0.0 | 0.0 | 0.00 | 0.00 | 0.00 | 73 | 1005.7 |
| 20260904092953 | 70 | 160 | 0.0 | 0.0 | 0.00 | 0.00 | 0.00 | 73 | 1005.7 |
| 20260904092445 | 70 | 160 | 0.0 | 0.0 | 0.00 | 0.00 | 0.00 | 73 | 1005.7 |
| 20260904091939 | 70 | 160 | 0.0 | 0.0 | 0.00 | 0.00 | 0.00 | 73 | 1005.8 |
| 20260904091433 | 70 | 160 | 0.0 | 0.0 | 0.00 | 0.00 | 0.00 | 73 | 1005.7 |
| 20260904090927 | 70 | 160 | 0.0 | 0.0 | 0.00 | 0.00 | 0.00 | 73 | 1005.6 |
| 20260904090423 | 70 | 160 | 0.0 | 0.0 | 0.00 | 0.00 | 0.00 | 73 | 1005.7 |
| 20260904085915 | 70 | 160 | 0.0 | 0.0 | 0.00 | 0.00 | 0.00 | 73 | 1005.5 |
| 20260904085630 | 70 | 160 | 0.0 | 0.0 | 0.00 | 0.00 | 0.00 | 73 | 1005.6 |
| 20260904084903 | 70 | 160 | 0.0 | 0.0 | 0.00 | 0.00 | 0.00 | 73 | 1005.6 |
| 20260904084615 | 70 | 160 | 0.0 | 0.0 | 0.00 | 0.00 | 0.00 | 73 | 1005.7 |
| 20260904083852 | 70 | 160 | 0.0 | 0.0 | 0.00 | 0.00 | 0.00 | 73 | 1005.7 |
| 20260904083345 | 70 | 160 | 0.0 | 0.0 | 0.00 | 0.00 | 0.00 | 73 | 1005.8 |
| 20260904082839 | 70 | 160 | 0.0 | 0.0 | 0.00 | 0.00 | 0.00 | 73 | 1005.9 |
| 20260904082337 | 71 | 160 | 0.0 | 0.0 | 0.00 | 0.00 | 0.00 | 73 | 1005.9 |
| 20260904081837 | 71 | 160 | 0.0 | 0.0 | 0.00 | 0.00 | 0.00 | 73 | 1006.0 |
| 20260904081334 | 71 | 160 | 0.0 | 0.0 | 0.00 | 0.00 | 0.00 | 73 | 1006.0 |
| 20260904080833 | 71 | 160 | 0.0 | 0.0 | 0.00 | 0.00 | 0.00 | 73 | 1006.1 |
| 20260904080552 | 71 | 160 | 0.0 | 0.0 | 0.00 | 0.00 | 0.00 | 73 | 1006.1 |
| 20260904075832 | 71 | 160 | 0.0 | 0.0 | 0.00 | 0.00 | 0.00 | 73 | 1006.1 |
| 20260904075332 | 71 | 160 | 0.0 | 0.0 | 0.00 | 0.00 | 0.00 | 73 | 1006.2 |
| 20260904074831 | 71 | 160 | 0.0 | 0.0 | 0.00 | 0.00 | 0.00 | 73 | 1006.2 |
| 20260904074330 | 71 | 160 | 0.0 | 0.0 | 0.00 | 0.00 | 0.00 | 72 | 1006.3 |
| 20260904073830 | 71 | 160 | 0.0 | 0.0 | 0.00 | 0.00 | 0.00 | 72 | 1006.4 |
| 20260904073330 | 71 | 160 | 0.0 | 0.0 | 0.00 | 0.00 | 0.00 | 72 | 1006.4 |
| 20260904072827 | 71 | 160 | 0.0 | 0.0 | 0.00 | 0.00 | 0.00 | 72 | 1006.3 |
| 20260904072327 | 71 | 160 | 0.0 | 0.0 | 0.00 | 0.00 | 0.00 | 72 | 1006.2 |
| 20260904071827 | 71 | 160 | 0.0 | 0.0 | 0.00 | 0.00 | 0.00 | 72 | 1006.2 |
| 20260904071324 | 71 | 160 | 0.0 | 0.0 | 0.00 | 0.00 | 0.00 | 72 | 1006.3 |
| 20260904070823 | 71 | 160 | 0.0 | 0.0 | 0.00 | 0.00 | 0.00 | 72 | 1006.1 |
| 20260904070320 | 71 | 160 | 0.0 | 0.0 | 0.00 | 0.00 | 0.00 | 72 | 1006.1 |
| 20260904065819 | 71 | 160 | 0.0 | 0.0 | 0.00 | 0.00 | 0.00 | 72 | 1006.0 |
| 20260904065320 | 71 | 160 | 0.0 | 0.0 | 0.00 | 0.00 | 0.00 | 72 | 1006.0 |
| 20260904064812 | 71 | 160 | 0.0 | 0.0 | 0.00 | 0.00 | 0.00 | 71 | 1006.0 |
| 20260904064306 | 71 | 160 | 0.0 | 0.0 | 0.00 | 0.00 | 0.00 | 71 | 1006.0 |
| 20260904063800 | 71 | 160 | 0.0 | 0.0 | 0.00 | 0.00 | 0.00 | 71 | 1006.0 |
| 20260904063254 | 71 | 160 | 0.0 | 1.0 | 0.00 | 0.00 | 0.00 | 71 | 1006.4 |
| 20260904062750 | 71 | 160 | 0.0 | 1.0 | 0.00 | 0.00 | 0.00 | 71 | 1006.3 |
| 20260904062242 | 71 | 160 | 0.0 | 1.0 | 0.00 | 0.00 | 0.00 | 71 | 1006.2 |
| 20260904061740 | 71 | 137 | 0.0 | 1.0 | 0.00 | 0.00 | 0.00 | 71 | 1006.3 |
| 20260904060741 | 71 | 124 | 0.0 | 2.0 | 0.00 | 0.00 | 0.00 | 71 | 1006.0 |
| 20260904060503 | 71 | 170 | 0.0 | 2.0 | 0.00 | 0.00 | 0.00 | 70 | 1005.8 |
| 20260904055740 | 71 | 302 | 0.0 | 1.0 | 0.00 | 0.00 | 0.00 | 70 | 1005.9 |
| 20260904055240 | 71 | 302 | 0.0 | 2.0 | 0.00 | 0.00 | 0.00 | 70 | 1005.5 |
| 20260904054740 | 71 | 301 | 0.0 | 2.0 | 0.00 | 0.00 | 0.00 | 70 | 1005.2 |
| 20260904054240 | 71 | 142 | 1.0 | 2.0 | 0.00 | 0.00 | 0.00 | 70 | 1005.3 |
| 20260904053740 | 71 | 222 | 0.0 | 2.0 | 0.00 | 0.00 | 0.00 | 70 | 1005.3 |
| 20260904053240 | 71 | 205 | 0.0 | 0.0 | 0.00 | 0.00 | 0.00 | 70 | 1004.8 |
| 20260904052740 | 71 | 205 | 0.0 | 0.0 | 0.00 | 0.00 | 0.00 | 70 | 1004.9 |
| 20260904052234 | 71 | 205 | 0.0 | 0.0 | 0.00 | 0.00 | 0.00 | 70 | 1005.2 |
| 20260904051734 | 71 | 205 | 0.0 | 0.0 | 0.00 | 0.00 | 0.00 | 70 | 1005.5 |
| 20260904051234 | 71 | 205 | 0.0 | 0.0 | 0.00 | 0.00 | 0.00 | 69 | 1005.8 |
| 20260904050235 | 71 | 205 | 1.0 | 6.0 | 0.00 | 0.00 | 0.00 | 69 | 1006.6 |
| 20260904045734 | 71 | 205 | 1.0 | 6.0 | 0.00 | 0.00 | 0.00 | 70 | 1007.3 |
| 20260904045234 | 71 | 163 | 2.0 | 5.0 | 0.00 | 0.00 | 0.00 | 70 | 1007.8 |
| 20260904044734 | 72 | 174 | 1.0 | 4.0 | 0.00 | 0.00 | 0.00 | 71 | 1008.4 |
| 20260904044235 | 72 | 239 | 1.0 | 5.0 | 0.00 | 0.00 | 0.00 | 72 | 1008.3 |
| 20260904044001 | 72 | 148 | 2.0 | 9.0 | 0.00 | 0.00 | 0.00 | 74 | 1008.2 |
| 20260904043235 | 72 | 174 | 4.0 | 11.0 | 0.00 | 0.00 | 0.00 | 77 | 1008.6 |
| 20260904043000 | 73 | 186 | 6.0 | 17.0 | 0.00 | 0.00 | 0.00 | 80 | 1008.8 |
| 20260904042500 | 74 | 294 | 7.0 | 18.0 | 0.00 | 0.00 | 0.00 | 83 | 1009.1 |
| 20260904041734 | 76 | 217 | 7.0 | 34.0 | 0.00 | 0.00 | 0.00 | 84 | 1008.7 |
| 20260904041234 | 78 | 178 | 4.0 | 34.0 | 0.00 | 0.00 | 0.00 | 81 | 1008.2 |
| 20260904040736 | 79 | 159 | 1.0 | 5.0 | 0.00 | 0.00 | 0.00 | 70 | 1006.9 |
| 20260904040236 | 78 | 215 | 1.0 | 4.0 | 0.00 | 0.00 | 0.00 | 71 | 1006.9 |
| 20260904035735 | 78 | 222 | 0.0 | 4.0 | 0.00 | 0.00 | 0.00 | 71 | 1006.3 |
| 20260904035454 | 78 | 91 | 0.0 | 3.0 | 0.00 | 0.00 | 0.00 | 72 | 1006.0 |
| 20260904034724 | 78 | 194 | 0.0 | 0.0 | 0.00 | 0.00 | 0.00 | 73 | 1005.2 |
| 20260904034440 | 78 | 194 | 0.0 | 0.0 | 0.00 | 0.00 | 0.00 | 74 | 1005.3 |
| 20260904033713 | 78 | 194 | 0.0 | 0.0 | 0.00 | 0.00 | 0.00 | 74 | 1005.4 |
| 20260904033206 | 78 | 194 | 0.0 | 0.0 | 0.00 | 0.00 | 0.00 | 74 | 1005.6 |
| 20260904032700 | 78 | 194 | 0.0 | 0.0 | 0.00 | 0.00 | 0.00 | 74 | 1005.6 |
| 20260904032154 | 78 | 194 | 0.0 | 0.0 | 0.00 | 0.00 | 0.00 | 74 | 1005.8 |
| 20260904031648 | 78 | 194 | 0.0 | 0.0 | 0.00 | 0.00 | 0.00 | 76 | 1005.9 |
| 20260904031143 | 78 | 194 | 0.0 | 0.0 | 0.00 | 0.00 | 0.00 | 76 | 1006.0 |
| 20260904030636 | 79 | 194 | 0.0 | 0.0 | 0.00 | 0.00 | 0.00 | 76 | 1006.0 |
| 20260904030130 | 79 | 194 | 0.0 | 0.0 | 0.00 | 0.00 | 0.00 | 76 | 1006.1 |
| 20260904025624 | 79 | 194 | 0.0 | 0.0 | 0.00 | 0.00 | 0.00 | 77 | 1006.1 |
| 20260904025118 | 79 | 194 | 0.0 | 0.0 | 0.00 | 0.00 | 0.00 | 77 | 1006.0 |
| 20260904024612 | 79 | 194 | 0.0 | 0.0 | 0.00 | 0.00 | 0.00 | 77 | 1006.2 |
| 20260904024106 | 79 | 194 | 0.0 | 0.0 | 0.00 | 0.00 | 0.00 | 78 | 1006.2 |
| 20260904023820 | 79 | 194 | 0.0 | 0.0 | 0.00 | 0.00 | 0.00 | 78 | 1006.2 |
| 20260904023054 | 80 | 194 | 0.0 | 0.0 | 0.00 | 0.00 | 0.00 | 79 | 1006.3 |
| 20260904022810 | 80 | 194 | 0.0 | 0.0 | 0.00 | 0.00 | 0.00 | 79 | 1006.2 |
| 20260904022043 | 80 | 194 | 0.0 | 0.0 | 0.00 | 0.00 | 0.00 | 79 | 1006.2 |
| 20260904021805 | 80 | 194 | 0.0 | 0.0 | 0.00 | 0.00 | 0.00 | 79 | 1006.3 |
| 20260904021255 | 80 | 194 | 0.0 | 1.0 | 0.00 | 0.00 | 0.00 | 79 | 1006.1 |
| 20260904020745 | 80 | 194 | 0.0 | 3.0 | 0.00 | 0.00 | 0.00 | 79 | 1006.1 |
| 20260904020019 | 80 | 194 | 0.0 | 3.0 | 0.00 | 0.00 | 0.00 | 78 | 1006.1 |
| 20260904015006 | 80 | 218 | 0.0 | 4.0 | 0.00 | 0.00 | 0.00 | 78 | 1006.3 |
| 20260904014722 | 80 | 236 | 0.0 | 3.0 | 0.00 | 0.00 | 0.00 | 78 | 1006.1 |
| 20260904014221 | 80 | 229 | 0.0 | 1.0 | 0.00 | 0.00 | 0.00 | 79 | 1006.0 |
| 20260904013448 | 80 | 223 | 0.0 | 1.0 | 0.00 | 0.00 | 0.00 | 79 | 1005.9 |
| 20260904012943 | 80 | 223 | 0.0 | 1.0 | 0.00 | 0.00 | 0.00 | 80 | 1005.9 |
| 20260904012437 | 80 | 223 | 0.0 | 1.0 | 0.00 | 0.00 | 0.00 | 80 | 1006.0 |
| 20260904011930 | 80 | 223 | 0.0 | 1.0 | 0.00 | 0.00 | 0.00 | 80 | 1006.0 |
| 20260904011425 | 80 | 214 | 0.0 | 1.0 | 0.00 | 0.00 | 0.00 | 80 | 1006.2 |
| 20260904010918 | 80 | 214 | 0.0 | 1.0 | 0.00 | 0.00 | 0.00 | 80 | 1006.3 |
| 20260904010412 | 80 | 214 | 0.0 | 1.0 | 0.00 | 0.00 | 0.00 | 81 | 1006.5 |
| 20260904005906 | 81 | 214 | 0.0 | 2.0 | 0.00 | 0.00 | 0.00 | 81 | 1006.5 |
| 20260904005622 | 81 | 227 | 0.0 | 3.0 | 0.00 | 0.00 | 0.00 | 81 | 1006.7 |
| 20260904004850 | 81 | 235 | 1.0 | 3.0 | 0.00 | 0.00 | 0.00 | 80 | 1006.7 |
| 20260904004345 | 81 | 224 | 0.0 | 3.0 | 0.00 | 0.00 | 0.00 | 80 | 1006.8 |
| 20260904003838 | 81 | 179 | 0.0 | 2.0 | 0.00 | 0.00 | 0.00 | 81 | 1006.8 |
| 20260904003332 | 81 | 188 | 0.0 | 4.0 | 0.00 | 0.00 | 0.00 | 81 | 1006.7 |
| 20260904002826 | 81 | 195 | 0.0 | 4.0 | 0.00 | 0.00 | 0.00 | 81 | 1006.8 |
| 20260904002320 | 81 | 213 | 0.0 | 2.0 | 0.00 | 0.00 | 0.00 | 81 | 1006.9 |
| 20260904001814 | 81 | 232 | 0.0 | 1.0 | 0.00 | 0.00 | 0.00 | 81 | 1006.8 |
| 20260904001531 | 81 | 160 | 0.0 | 0.0 | 0.00 | 0.00 | 0.00 | 82 | 1006.7 |
| 20260904000803 | 81 | 160 | 0.0 | 1.0 | 0.00 | 0.00 | 0.00 | 82 | 1006.7 |
| 20260904000256 | 81 | 160 | 0.0 | 1.0 | 0.00 | 0.00 | 0.00 | 82 | 1006.5 |
| 20260903235750 | 81 | 252 | 0.0 | 1.0 | 0.00 | 0.00 | 0.00 | 83 | 1006.4 |
| 20260903235244 | 82 | 252 | 0.0 | 0.0 | 0.00 | 0.00 | 0.00 | 83 | 1006.4 |
| 20260903234738 | 82 | 252 | 0.0 | 0.0 | 0.00 | 0.00 | 0.00 | 83 | 1006.3 |
| 20260903234232 | 82 | 252 | 0.0 | 3.0 | 0.00 | 0.00 | 0.00 | 83 | 1006.1 |
| 20260903233726 | 82 | 252 | 0.0 | 3.0 | 0.00 | 0.00 | 0.00 | 83 | 1006.0 |
| 20260903233220 | 82 | 255 | 0.0 | 3.0 | 0.00 | 0.00 | 0.00 | 83 | 1006.0 |
| 20260903232714 | 83 | 214 | 0.0 | 1.0 | 0.00 | 0.00 | 0.00 | 82 | 1006.0 |
| 20260903232208 | 83 | 214 | 0.0 | 1.0 | 0.00 | 0.00 | 0.00 | 82 | 1006.1 |
| 20260903231702 | 83 | 214 | 0.0 | 0.0 | 0.00 | 0.00 | 0.00 | 81 | 1006.1 |
| 20260903231156 | 84 | 214 | 0.0 | 0.0 | 0.00 | 0.00 | 0.00 | 80 | 1006.0 |
| 20260903230652 | 84 | 214 | 0.0 | 0.0 | 0.00 | 0.00 | 0.00 | 79 | 1006.0 |
| 20260903230152 | 85 | 214 | 0.0 | 0.0 | 0.00 | 0.00 | 0.00 | 79 | 1006.0 |
| 20260903225650 | 85 | 214 | 0.0 | 0.0 | 0.00 | 0.00 | 0.00 | 78 | 1006.0 |
| 20260903225416 | 86 | 214 | 0.0 | 0.0 | 0.00 | 0.00 | 0.00 | 77 | 1005.9 |
| 20260903224646 | 87 | 214 | 0.0 | 0.0 | 0.00 | 0.00 | 0.00 | 77 | 1005.8 |
| 20260903224144 | 87 | 214 | 0.0 | 1.0 | 0.00 | 0.00 | 0.00 | 76 | 1005.9 |
| 20260903223643 | 87 | 214 | 0.0 | 1.0 | 0.00 | 0.00 | 0.00 | 75 | 1005.9 |
| 20260903223144 | 87 | 226 | 0.0 | 3.0 | 0.00 | 0.00 | 0.00 | 75 | 1005.9 |
| 20260903222643 | 88 | 225 | 0.0 | 3.0 | 0.00 | 0.00 | 0.00 | 73 | 1005.8 |
| 20260903222144 | 88 | 240 | 0.0 | 4.0 | 0.00 | 0.00 | 0.00 | 73 | 1005.7 |
| 20260903221643 | 89 | 222 | 1.0 | 4.0 | 0.00 | 0.00 | 0.00 | 71 | 1005.8 |
| 20260903221143 | 89 | 223 | 0.0 | 4.0 | 0.00 | 0.00 | 0.00 | 70 | 1005.8 |
| 20260903220643 | 90 | 224 | 0.0 | 4.0 | 0.00 | 0.00 | 0.00 | 69 | 1005.9 |
| 20260903220143 | 91 | 273 | 0.0 | 4.0 | 0.00 | 0.00 | 0.00 | 68 | 1005.9 |
| 20260903215644 | 91 | 210 | 0.0 | 4.0 | 0.00 | 0.00 | 0.00 | 67 | 1005.8 |
| 20260903215143 | 91 | 222 | 1.0 | 5.0 | 0.00 | 0.00 | 0.00 | 67 | 1006.0 |
| 20260903214641 | 91 | 238 | 1.0 | 5.0 | 0.00 | 0.00 | 0.00 | 67 | 1005.9 |
| 20260903213640 | 91 | 255 | 1.0 | 5.0 | 0.00 | 0.00 | 0.00 | 68 | 1005.9 |
| 20260903213140 | 91 | 315 | 1.0 | 7.0 | 0.00 | 0.00 | 0.00 | 70 | 1005.9 |
| 20260903212640 | 92 | 267 | 1.0 | 7.0 | 0.00 | 0.00 | 0.00 | 68 | 1005.9 |